Overview Statistics Trail Chart Weather Telemetry Raw packets
 

This is the latest recevied weather packets stored in our database for station/object W5GMO. If no packets are shown the sender has not sent any weather packets the latest 10 day(s).

<< 50 51 52 53 54 55 56 >>
Time Temp. Humidity Pressure Rain* Wind** Luminosity Snow
1788296482 36.11° C 1% 1014.4 hPa 0 mm - 284 W/m² -
1788296177 35.56° C 1% 1014.4 hPa 0 mm - 302 W/m² -
1788295877 35.56° C 1% 1014.4 hPa 0 mm - 318 W/m² -
1788295573 35.56° C 1% 1014.4 hPa 0 mm - 336 W/m² -
1788295273 35° C 1% 1014.4 hPa 0 mm - 259 W/m² -
1788294973 35° C 1% 1014.6 hPa 0 mm - 326 W/m² -
1788294668 35° C 1% 1014.6 hPa 0 mm - 345 W/m² -
1788294368 35° C 1% 1014.6 hPa 0 mm - 216 W/m² -
1788294064 34.44° C 1% 1014.8 hPa 0 mm - 250 W/m² -
1788293759 35° C 1% 1014.8 hPa 0 mm - 209 W/m² -
1788293459 34.44° C 1% 1014.7 hPa 0 mm - 409 W/m² -
1788293158 35° C 1% 1014.8 hPa 0 mm - 201 W/m² -
1788292854 34.44° C 1% 1014.6 hPa 0 mm - 193 W/m² -
1788292551 35° C 1% 1014.9 hPa 0 mm - 216 W/m² -
1788292245 35° C 1% 1014.7 hPa 0 mm - 371 W/m² -
1788291941 35.56° C 1% 1014.9 hPa 0 mm - 257 W/m² -
1788291636 36.11° C 1% 1015 hPa 0 mm - 542 W/m² -
1788291336 35.56° C 1% 1015 hPa 0 mm - 618 W/m² -
1788291031 35.56° C 1% 1015.1 hPa 0 mm - 606 W/m² -
1788290726 35.56° C 1% 1015 hPa 0 mm - 236 W/m² -
1788290422 34.44° C 1% 1015.3 hPa 0 mm - 409 W/m² -
1788290118 35.56° C 1% 1015.2 hPa 0 mm - 217 W/m² -
1788289813 35.56° C 1% 1015.6 hPa 0 mm - 303 W/m² -
1788289509 36.11° C 1% 1015.6 hPa 0 mm - 336 W/m² -
1788289208 36.11° C 1% 1015.8 hPa 0 mm - 773 W/m² -

* Rain latest hour (hover to see other rain measurements)
** Current wind speed in m/s (hover to see current wind gust speed)